EST,Max TemperatureF,Mean TemperatureF,Min TemperatureF,Max Dew PointF,MeanDew PointF,Min DewpointF,Max Humidity, Mean Humidity, Min Humidity, Max Sea Level PressureIn, Mean Sea Level PressureIn, Min Sea Level PressureIn, Max VisibilityMiles, Mean VisibilityMiles, Min VisibilityMiles, Max Wind SpeedMPH, Mean Wind SpeedMPH, Max Gust SpeedMPH,PrecipitationIn, CloudCover, Events, WindDirDegrees
2014-1-1,50,33,16,26,20,13,88,62,36,30.41,30.28,30.11,10,10,10,9,0,12,0.00,0,,-1
2014-1-2,34,25,15,32,23,9,92,86,80,30.08,29.79,29.61,10,6,2,18,3,26,0.22,7,Rain-Snow,308
2014-1-3,15,8,0,9,2,-4,87,74,61,30.50,30.22,29.83,10,6,2,20,7,28,0.01,7,Snow,313
2014-1-4,45,23,0,19,5,-5,87,52,16,30.45,30.33,30.21,10,10,10,10,1,14,0.00,0,,170
2014-1-5,53,33,12,44,26,9,88,74,59,30.24,29.99,29.55,10,10,10,29,6,41,0.00,1,,162
2014-1-6,51,23,-5,43,10,-15,81,66,51,30.19,29.83,29.49,10,5,1,32,12,44,0.22,8,Rain-Snow,275
2014-1-7,7,-1,-9,-5,-14,-18,75,63,51,31.14,29.10,28.21,10,8,2,21,7,30,T,6,Snow,249
2014-1-8,33,18,2,18,4,-8,79,59,39,30.58,30.50,30.43,10,10,10,10,5,17,0.00,5,,185
2014-1-9,41,29,16,27,19,13,92,65,38,30.59,30.51,30.41,10,10,10,8,1,12,0.00,6,,162
2014-1-10,54,44,34,45,36,17,92,66,40,30.40,30.27,29.99,10,8,2,17,4,24,0.18,6,Rain,156
2014-1-11,60,50,39,50,43,28,89,77,65,29.95,29.65,29.47,10,10,6,26,11,47,0.57,7,Rain,227
2014-1-12,42,33,24,29,26,22,92,73,53,30.15,29.95,29.71,10,10,10,22,6,32,0.00,6,,266
2014-1-13,59,40,20,39,28,18,92,66,40,30.13,30.00,29.81,10,10,9,15,3,21,0.07,3,Rain,174
2014-1-14,48,36,24,41,35,23,96,79,62,29.94,29.83,29.75,10,9,2,15,3,21,0.18,6,Rain,219
2014-1-15,37,31,24,30,24,17,92,78,63,30.06,29.96,29.89,10,9,4,14,4,21,0.02,8,Snow,271
2014-1-16,36,29,21,20,13,10,74,55,35,30.06,29.96,29.87,10,10,10,13,4,18,0.00,6,,233
2014-1-17,45,34,22,28,23,14,85,58,30,29.98,29.87,29.79,10,7,1,20,5,29,0.09,7,Snow,216
2014-1-18,22,16,9,14,7,3,84,73,61,30.06,29.97,29.85,10,8,2,16,4,22,0.03,7,Snow,279
2014-1-19,33,26,18,23,19,14,91,70,49,29.92,29.84,29.73,10,8,2,20,8,30,0.03,6,Snow,226
2014-1-20,43,36,29,27,21,14,85,63,40,29.92,29.83,29.76,10,10,10,24,10,32,0.00,2,,264
2014-1-21,33,21,8,28,20,1,92,81,70,29.99,29.76,29.62,10,4,0,20,5,26,0.34,8,Fog-Snow,328
2014-1-22,11,4,-4,-1,-6,-9,79,63,46,30.14,30.07,29.94,10,10,6,15,4,20,T,7,Snow,310
2014-1-23,13,8,3,7,0,-6,79,68,57,30.54,30.22,29.97,10,5,1,23,9,32,0.02,8,Snow,270
2014-1-24,16,6,-4,-4,-8,-12,79,55,30,30.60,30.34,29.86,10,9,4,10,4,,0.01,4,Snow,240
2014-1-25,28,15,1,19,11,-13,74,46,18,29.88,29.59,29.41,10,4,0,29,14,43,0.05,7,Fog-Snow,252
2014-1-26,46,24,2,26,9,-5,76,62,47,29.93,29.79,29.69,10,8,2,20,6,25,0.01,6,Snow,223
2014-1-27,47,26,4,31,13,-9,84,62,39,30.32,29.91,29.65,10,8,1,25,11,35,0.10,6,Rain-Snow,272
2014-1-28,10,2,-6,-5,-9,-12,78,60,41,31.14,30.40,30.21,10,10,10,12,3,15,0.00,5,,321
2014-1-29,15,2,-12,-8,-10,-16,87,62,36,30.45,29.72,28.21,10,10,8,16,2,19,0.00,1,,265
2014-1-30,37,13,-11,4,-6,-16,83,49,15,30.44,29.93,28.28,10,10,10,13,3,18,0.00,0,,152
2014-1-31,44,35,26,23,10,-2,75,46,17,30.23,30.16,30.09,10,10,10,18,5,25,0.00,4,,249